Location: Sceptre
(50.8619°N, 109.2670°W)
Time: 21:23:39
(UTC+00:00)

YUBILEINY - Visible Passes

Search period start: 27 June 2022 00:00
Search period end: 07 July 2022 00:00
Orbit: 1479 x 1507 km, 82.5° (Epoch: 27 June)

Date Brightness Start Highest point End Pass type
(mag) Time Alt. Az. Time Alt. Az. Time Alt. Az.
27 Jun ? 09:08:43 10° N 09:13:26 15° NE 09:18:06 10° ENE visible
28 Jun ? 04:11:35 10° WNW 04:16:11 15° NW 04:20:47 10° N visible
28 Jun ? 10:14:56 10° N 10:22:41 32° ENE 10:30:19 10° ESE visible
29 Jun ? 09:25:46 10° N 09:32:02 21° NE 09:38:15 10° E visible
30 Jun ? 04:33:12 10° NW 04:35:01 11° NNW 04:36:51 10° NNW visible
30 Jun ? 08:37:08 10° NNE 08:40:57 13° NE 08:44:45 10° ENE visible
01 Jul ? 09:43:03 10° N 09:50:25 28° ENE 09:57:43 10° ESE visible
02 Jul ? 08:53:59 10° N 08:59:39 18° NE 09:05:17 10° E visible
03 Jul ? 08:05:49 10° NNE 08:08:27 11° NE 08:11:04 10° NE visible
03 Jul ? 10:00:28 10° N 10:08:37 39° ENE 10:16:39 10° SE visible
04 Jul ? 09:11:11 10° N 09:18:08 25° NE 09:25:00 10° ESE visible
05 Jul ? 08:22:16 10° N 08:27:14 16° NE 08:32:10 10° ENE visible
05 Jul ? 10:17:59 10° N 10:26:36 54° ENE 10:35:07 10° SSE visible
06 Jul ? 09:28:33 10° N 09:36:25 34° ENE 09:44:08 10° SE visible
